Location: Newark
(60.1950°N, 25.0308°E)
Time: 01:56:31
(UTC+00:00)

SEEDS - Visible Passes

Search period start: 09 December 2019 00:00
Search period end: 19 December 2019 00:00
Orbit: 585 x 605 km, 97.5° (Epoch: 08 December)

Date Brightness Start Highest point End Pass type
(mag) Time Alt. Az. Time Alt. Az. Time Alt. Az.
09 Dec ? 03:40:32 10° NNE 03:44:17 31° E 03:48:03 10° SSE visible
09 Dec ? 05:16:05 10° N 05:20:10 50° WNW 05:24:15 10° SW visible
09 Dec ? 14:40:53 10° SSE 14:45:01 70° ENE 14:49:13 10° NNW visible
09 Dec ? 16:17:51 10° SW 16:21:08 22° W 16:24:26 10° NW visible
10 Dec ? 03:50:01 10° NNE 03:53:56 36° E 03:57:51 10° SSE visible
10 Dec ? 05:25:41 10° N 05:29:41 43° WNW 05:33:41 10° SW visible
10 Dec ? 14:50:25 10° SSE 14:54:35 83° ENE 14:58:47 10° NNW visible
10 Dec ? 16:27:48 10° SW 16:30:48 19° W 16:33:48 10° NW visible
11 Dec ? 03:59:30 10° NNE 04:03:33 43° E 04:07:36 10° S visible
11 Dec ? 05:35:18 10° N 05:39:12 37° WNW 05:43:06 10° SW visible
11 Dec ? 14:59:58 10° SSE 15:04:08 84° WSW 15:08:22 10° NNW visible
11 Dec ? 16:37:51 10° SW 16:40:29 16° W 16:43:07 10° NW visible
12 Dec ? 02:36:16 10° ENE 02:36:29 10° E 02:36:43 10° E visible
12 Dec ? 04:09:02 10° NNE 04:13:10 51° E 04:17:17 10° S visible
12 Dec ? 05:44:56 10° N 05:48:42 32° WNW 05:52:28 10° WSW visible
12 Dec ? 15:09:33 10° S 15:13:43 71° WSW 15:17:55 10° NNW visible
12 Dec ? 16:48:02 10° WSW 16:50:10 14° W 16:52:20 10° NW visible
13 Dec ? 02:44:32 10° ENE 02:46:13 12° E 02:47:54 10° ESE visible
13 Dec ? 04:18:33 10° NNE 04:22:46 61° ESE 04:26:57 10° S visible
13 Dec ? 05:54:34 10° N 05:58:12 28° WNW 06:01:48 10° WSW visible
13 Dec ? 15:19:11 10° S 15:23:18 59° WSW 15:27:28 10° NNW visible
13 Dec ? 16:58:26 10° W 16:59:53 12° W 17:01:21 10° WNW visible
14 Dec ? 02:53:36 10° NE 02:55:55 14° E 02:58:13 10° ESE visible
14 Dec ? 04:28:06 10° NNE 04:32:20 72° ESE 04:36:35 10° S visible
14 Dec ? 06:04:13 10° N 06:07:40 25° NW 06:11:06 10° WSW visible
14 Dec ? 15:28:51 10° S 15:32:54 49° W 15:37:00 10° NNW visible
15 Dec ? 03:02:50 10° NE 03:05:37 17° E 03:08:22 10° SE visible
15 Dec ? 04:37:39 10° NNE 04:41:55 85° ESE 04:46:10 10° SSW visible
15 Dec ? 06:13:54 10° N 06:17:08 22° NW 06:20:23 10° WSW visible
15 Dec ? 14:03:00 10° SE 14:06:51 37° ENE 14:10:44 10° N visible
15 Dec ? 15:38:33 10° S 15:42:30 41° W 15:46:31 10° NNW visible
16 Dec ? 03:12:10 10° NE 03:15:17 20° E 03:18:24 10° SE visible
16 Dec ? 04:47:13 10° NNE 04:51:29 81° WNW 04:55:44 10° SSW visible
16 Dec ? 14:12:24 10° SE 14:16:21 43° ENE 14:20:22 10° N visible
16 Dec ? 15:48:17 10° SSW 15:52:08 35° W 15:56:01 10° NNW visible
17 Dec ? 03:21:33 10° NE 03:24:57 23° E 03:28:21 10° SE visible
17 Dec ? 04:56:48 10° NNE 05:01:02 69° WNW 05:05:15 10° SSW visible
17 Dec ? 14:21:50 10° SE 14:25:52 51° ENE 14:29:59 10° N visible
17 Dec ? 15:58:04 10° SSW 16:01:45 30° W 16:05:29 10° NNW visible
18 Dec ? 03:30:58 10° NNE 03:34:36 27° E 03:38:14 10° SSE visible
18 Dec ? 05:06:24 10° N 05:10:34 58° WNW 05:14:45 10° SW visible
18 Dec ? 14:31:17 10° SSE 14:35:24 60° ENE 14:39:34 10° NNW visible
18 Dec ? 16:07:54 10° SSW 16:11:24 25° W 16:14:56 10° NW visible
